Regional Weather Roundup
Issued by NWS Bismarck, ND

Home | Current Version | Previous Version | Text Only | Print | Product List | Glossary On
Versions: 1 2 3 4 5 6 7 8 9 10 11 12 13 14 15 16 17 18 19 20 21 22 23 24 25 26 27 28 29 30 31 32 33 34 35 36 37 38 39 40 41 42 43 44 45 46 47 48 49 50
000
ASUS43 KBIS 271110
RWRBIS

NWR BROADCAST TEXT
NATIONAL WEATHER SERVICE BISMARCK ND
600 AM CDT MON MAR 27 2017

NOTE: "FAIR" INDICATES FEW OR NO CLOUDS BELOW 12,000 FEET WITH NO
SIGNIFICANT WEATHER AND/OR OBSTRUCTIONS TO VISIBILITY.


CITY           SKY/WX    TMP DP  RH WIND       PRES   REMARKS
WILLISTON      FAIR      32  28  85 NE6       29.87F
MINOT          MOCLDY    37  33  85 SW5       29.86S
MINOT AFB      FAIR      32  30  95 NW3       29.86S
BISMARCK       MOCLDY    32  30  92 CALM      29.91R
DICKINSON      FAIR      34  30  85 S3        29.85S
GARRISON         N/A     32  29  88 CALM      29.86F
HETTINGER ARPT FAIR      30  28  92 CALM      29.89S
JAMESTOWN      FOG       28  27  96 S3        29.92S VSB 1/4
HAZEN          FAIR      27  27 100 CALM      29.89F
LINTON           N/A     28  28 100 E7        29.93S
MANDAN         FAIR      32  32 100 S6        29.90S
STANLEY        PTSUNNY   32  32 100 CALM      29.89S
TIOGA          PTSUNNY   30  30 100 W5        29.89S
WATFORD CITY   FAIR      32  32 100 E6        29.85F
$$

CITY           SKY/WX    TMP DP  RH WIND       PRES   REMARKS
GRAND FORKS    FOG       38  38 100 CALM      29.96S VSB 1/4
GRAND FORKS AF FOG       36  36 100 CALM      29.97R VSB 1/2
DEVILS LAKE    CLOUDY    30  30 100 SE6       29.92S
FARGO          MOCLDY    33  32  96 CALM      29.96R FOG
CAVALIER       FOG       32  32 100 NE3       29.97S VSB<1/4
GRAFTON        FOG       32  32 100 NW3       29.99R VSB 1/4
GWINNER        PTSUNNY   34  32  93 MISG      29.94R
LANGDON        CLOUDY    30  32 100 E8        29.93S FOG
ROLLA          CLOUDY    34  34 100 SW8       29.88F
$$

CITY           SKY/WX    TMP DP  RH WIND       PRES   REMARKS
ABERDEEN       CLOUDY    35  32  88 NE6       29.93S
MOBRIDGE       FAIR      32  29  88 CALM      29.89S
BUFFALO          N/A     36  33  89 SE6       29.81S
RAPID CITY     FOG       27  26  96 CALM      29.89S VSB 1
GLASGOW        CLOUDY    37  24  59 E10       29.84S
SIDNEY         CLOUDY    37  30  75 CALM      29.87R
WOLF POINT     FAIR      33  26  75 CALM      29.87S
GLENDIVE       FAIR      37  26  64 E5        29.86S
MILES CITY     FAIR      44  35  70 SE5       29.83R
BAKER          FAIR      35  33  92 SE8       29.86S
$$

CITY           SKY/WX    TMP DP  RH WIND       PRES   REMARKS
BILLINGS       CLOUDY    45  32  60 SW9       29.80S
GREAT FALLS    MOCLDY    39  29  67 SW8       29.79S
REGINA         FOG       28  28 100 N6        29.90R VSB 1/4
ESTEVAN        PTCLDY    28  28 100 CALM      29.88S FOG
$$




USA.gov is the U.S. government's official web portal to all federal, state and local government web resources and services.